This demonstration page uses our WeatherBlox Daily Observations layout. Learn more.

Left ArrowRight Arrow

Hourly Observations for June 4, 2022

Temp ( °F °C ) Dew Point ( °F °C ) Humidity (%) Winds ( mph kmh ) Pressure ( in mb ) Visibility ( mi km ) Precip ( " mm )
12:15 am 00:15 Clear 64 18 54 12 68 68 Calm 29.91 1013 10 16 0.00 0.00
12:35 am 00:35 Clear 63 17 55 13 77 77 Calm 29.92 1013 10 16 0.00 0.00
12:55 am 00:55 Clear 61 16 55 13 83 83 Calm 29.92 1013 10 16 0.00 0.00
1:15 am 01:15 Clear 61 16 55 13 83 83 W 3 6 29.92 1013 10 16 0.00 0.00
1:35 am 01:35 Clear 59 15 55 13 88 88 W 3 6 29.92 1013 10 16 0.00 0.00
1:55 am 01:55 Clear 61 16 55 13 83 83 Calm 29.92 1013 10 16 0.00 0.00
2:15 am 02:15 Clear 61 16 55 13 83 83 Calm 29.93 1013 10 16 0.00 0.00
2:35 am 02:35 Clear 61 16 55 13 83 83 Calm 29.93 1013 10 16 0.00 0.00
2:55 am 02:55 Clear 59 15 55 13 88 88 Calm 29.92 1013 10 16 0.00 0.00
3:15 am 03:15 Clear 59 15 55 13 88 88 Calm 29.92 1013 10 16 0.00 0.00
3:35 am 03:35 Clear 59 15 55 13 88 88 Calm 29.92 1013 10 16 0.00 0.00
3:55 am 03:55 Clear 59 15 55 13 88 88 Calm 29.93 1013 10 16 0.00 0.00
4:15 am 04:15 Clear 57 14 55 13 94 94 Calm 29.92 1013 10 16 0.00 0.00
4:35 am 04:35 Clear 57 14 54 12 88 88 Calm 29.92 1013 10 16 0.00 0.00
4:55 am 04:55 Clear 57 14 55 13 94 94 Calm 29.93 1014 10 16 0.00 0.00
5:15 am 05:15 Clear 55 13 54 12 94 94 Calm 29.92 1013 10 16 0.00 0.00
5:35 am 05:35 Clear 54 12 54 12 100 100 WNW 5 7 29.93 1014 10 16 0.00 0.00
5:55 am 05:55 Sunny 55 13 54 12 94 94 WNW 3 6 29.93 1014 10 16 0.00 0.00
6:15 am 06:15 Sunny 57 14 54 12 88 88 Calm 29.93 1014 10 16 0.00 0.00
6:35 am 06:35 Sunny 59 15 54 12 82 82 Calm 29.93 1013 10 16 0.00 0.00
6:55 am 06:55 Sunny 59 15 55 13 88 88 Calm 29.94 1014 10 16 0.00 0.00
7:15 am 07:15 Sunny 61 16 57 14 88 88 N 3 6 29.94 1014 10 16 0.00 0.00
7:35 am 07:35 Sunny 64 18 55 13 73 73 N 3 6 29.93 1014 10 16 0.00 0.00
7:55 am 07:55 Sunny 68 20 55 13 64 64 NNW 5 7 29.94 1014 10 16 0.00 0.00
8:15 am 08:15 Sunny 70 21 55 13 60 60 NNW 7 11 29.94 1014 10 16 0.00 0.00
8:35 am 08:35 Sunny 70 21 55 13 60 60 N 7 11 29.95 1014 10 16 0.00 0.00
8:55 am 08:55 Sunny 72 22 55 13 57 57 N 7 11 29.95 1014 10 16 0.00 0.00
9:15 am 09:15 Sunny 73 23 55 13 53 53 NNW 8 13 29.96 1014 10 16 0.00 0.00
9:35 am 09:35 Sunny 73 23 55 13 53 53 NNW 10 17 29.95 1014 10 16 0.00 0.00
9:55 am 09:55 Sunny 75 24 54 12 47 47 NNW 10 17 29.95 1014 N/A 0.00 0.00
10:15 am 10:15 Sunny 75 24 54 12 47 47 N 8 13 29.95 1014 N/A 0.00 0.00
10:35 am 10:35 Sunny 77 25 54 12 44 44 NNW 9 15 29.94 1014 N/A 0.00 0.00
10:55 am 10:55 Sunny 79 26 54 12 42 42 NNW 9 15 29.94 1014 10 16 0.00 0.00
11:15 am 11:15 Sunny 79 26 52 11 39 39 NNW 10 17 29.95 1014 10 16 0.00 0.00
11:35 am 11:35 Sunny 79 26 54 12 42 42 NW 9 15 29.95 1014 10 16 0.00 0.00
11:55 am 11:55 Sunny 79 26 54 12 42 42 NNW 14 22 29.95 1014 10 16 0.00 0.00
12:15 pm 12:15 Sunny 79 26 54 12 42 42 NNW 9 15 29.94 1014 10 16 0.00 0.00
12:35 pm 12:35 Sunny 81 27 50 10 34 34 NW 10 17 29.94 1014 10 16 0.00 0.00
12:55 pm 12:55 Sunny 81 27 50 10 34 34 WNW 14 22 29.94 1014 10 16 0.00 0.00
1:15 pm 13:15 Sunny 81 27 54 12 39 39 NW 10 17 29.93 1014 10 16 0.00 0.00
1:35 pm 13:35 Sunny 81 27 54 12 39 39 W 12 19 29.93 1014 10 16 0.00 0.00
1:55 pm 13:55 Sunny 81 27 46 8 30 30 NW 13 20 29.92 1013 10 16 0.00 0.00
2:15 pm 14:15 Sunny 81 27 46 8 30 30 NW 9 15 29.92 1013 10 16 0.00 0.00
2:55 pm 14:55 Sunny 82 28 46 8 28 28 N 7 11 29.91 1013 10 16 0.00 0.00
3:15 pm 15:15 Sunny 82 28 48 9 30 30 NNW 7 11 29.91 1013 10 16 0.00 0.00
3:35 pm 15:35 Sunny 82 28 48 9 30 30 N 7 11 29.90 1013 10 16 0.00 0.00
3:55 pm 15:55 Sunny 82 28 52 11 35 35 WNW 10 17 29.89 1012 10 16 0.00 0.00
4:15 pm 16:15 Sunny 82 28 50 10 32 32 NNW 5 7 29.89 1012 10 16 0.00 0.00
4:35 pm 16:35 Sunny 82 28 52 11 35 35 NW 8 13 29.89 1012 10 16 0.00 0.00
4:55 pm 16:55 Sunny 82 28 52 11 35 35 NNW 6 9 29.89 1012 10 16 0.00 0.00
5:15 pm 17:15 Sunny 82 28 52 11 35 35 Calm 29.88 1012 10 16 0.00 0.00
5:35 pm 17:35 Sunny 82 28 52 11 35 35 W 7 11 29.88 1012 10 16 0.00 0.00
5:55 pm 17:55 Sunny 82 28 50 10 32 32 Calm 29.88 1012 10 16 0.00 0.00
6:15 pm 18:15 Sunny 82 28 52 11 35 35 WNW 7 11 29.88 1012 10 16 0.00 0.00
6:35 pm 18:35 Sunny 81 27 50 10 34 34 NNW 3 6 29.88 1012 10 16 0.00 0.00
6:55 pm 18:55 Sunny 81 27 50 10 34 34 NW 3 6 29.88 1012 10 16 0.00 0.00
7:15 pm 19:15 Sunny 81 27 48 9 32 32 Calm 29.87 1012 10 16 0.00 0.00
7:35 pm 19:35 Sunny 79 26 52 11 39 39 NW 3 6 29.88 1012 10 16 0.00 0.00
7:55 pm 19:55 Sunny 79 26 50 10 37 37 Calm 29.88 1012 10 16 0.00 0.00
8:15 pm 20:15 Sunny 79 26 50 10 37 37 NE 3 6 29.88 1012 10 16 0.00 0.00
8:35 pm 20:35 Clear 79 26 50 10 37 37 Calm 29.88 1012 10 16 0.00 0.00
8:55 pm 20:55 Clear 75 24 54 12 47 47 Calm 29.89 1012 10 16 0.00 0.00
9:15 pm 21:15 Clear 72 22 55 13 57 57 Calm 29.90 1012 10 16 0.00 0.00
9:35 pm 21:35 Clear 72 22 54 12 53 53 N 3 6 29.90 1012 10 16 0.00 0.00
9:55 pm 21:55 Clear 70 21 54 12 57 57 Calm 29.91 1013 10 16 0.00 0.00
10:15 pm 22:15 Clear 68 20 55 13 64 64 Calm 29.92 1013 10 16 0.00 0.00
10:35 pm 22:35 Clear 66 19 55 13 68 68 Calm 29.92 1013 10 16 0.00 0.00
10:55 pm 22:55 Clear 64 18 55 13 73 73 NNW 3 6 29.93 1014 10 16 0.00 0.00
11:15 pm 23:15 Clear 64 18 54 12 68 68 NW 3 6 29.93 1014 10 16 0.00 0.00
11:35 pm 23:35 Clear 64 18 52 11 64 64 NNW 3 6 29.93 1014 10 16 0.00 0.00
11:55 pm 23:55 Clear 64 18 52 11 64 64 N 6 9 29.93 1014 10 16 0.00 0.00

Powered by AerisWeather